Temp_Advection
nan nan nan nan nan nan nan nan nan nan nan nan nan nan nan nan nan nan nan nan nan nan nan nan nan nan nan nan nan nan nan nan nan nan nan nan nan nan nan nan nan nan nan nan nan nan nan nan nan
nan -0 -0 -0 -0 0 -0 -0 -0 -0 -0 0 0 0 -0 -1 -1 -0 -0 -0 -0 -0 0 0 0 0 0 0 0 0 0 0 0 0 0 0 0 0 0 0 0 0 0 0 0 0 0 0 nan
nan 0 -1 -0 -0 0 -0 -0 -0 -0 -0 -0 -0 -0 -0 -1 -1 -0 -1 -0 -0 -0 0 0 0 0 0 0 0 0 0 0 0 0 0 0 0 0 0 0 0 0 0 0 0 0 0 0 nan
nan -0 -0 -0 0 -0 0 -0 -0 -0 -0 0 0 -1 -1 -1 -0 -0 -0 -0 -0 -0 0 0 0 0 0 0 0 0 0 0 0 0 0 0 0 -0 0 0 0 0 0 0 0 0 0 0 nan
nan -0 -0 0 -0 -0 -0 -0 0 0 -0 0 0 -0 -1 -1 -0 -0 -0 0 0 0 0 0 0 0 0 0 0 0 0 0 0 0 0 0 0 0 0 0 0 0 0 0 0 0 0 0 nan
nan -0 -0 0 -0 -0 -0 -0 0 0 -0 0 0 -1 -1 -0 -0 0 0 -0 -0 -0 -0 -0 -0 -0 0 0 0 0 0 0 0 0 0 0 0 0 0 0 0 0 0 0 0 0 0 0 nan
nan -0 -0 0 -0 -0 -0 -0 0 0 -0 -1 0 -0 -1 -1 0 0 0 0 0 0 0 -0 0 0 0 0 0 0 0 -0 0 0 0 0 0 0 0 0 0 0 0 0 0 0 0 0 nan
nan -0 0 0 0 -0 -0 0 -0 -0 -0 -0 -0 0 -1 -1 0 0 0 0 0 0 0 0 0 0 0 0 0 0 -0 -0 -0 -0 0 0 -0 0 0 0 -0 -0 0 0 0 0 0 0 nan
nan -0 0 0 0 -0 -0 -0 -0 -0 0 -0 -1 -1 -0 0 0 0 0 0 -0 -0 -0 0 0 0 0 -0 0 0 0 0 -0 -0 -0 -0 0 0 -0 -0 0 0 0 0 0 0 0 0 nan
nan -0 -0 -0 0 0 0 -0 -0 -0 0 -0 -2 -1 -0 0 0 0 -0 -0 -0 -0 -0 -0 0 0 0 -0 -0 0 0 0 0 0 0 -0 -0 -0 0 0 -0 0 0 0 0 0 0 1 nan
nan -0 0 0 0 -0 -0 0 -0 -0 1 -1 -0 -1 0 0 0 -0 -0 -0 -0 -0 -0 -0 -0 -0 -0 -0 -0 -0 -0 -0 0 0 0 0 -0 -0 -0 0 0 0 0 0 -0 -0 0 0 nan
nan 0 0 0 0 -0 -0 -0 0 -1 -1 -0 -0 -0 -0 -0 -1 -1 -0 -0 -0 -0 -0 -0 -0 -0 -0 -0 -0 -0 -0 -0 -0 -0 0 0 0 0 -0 -0 -0 0 0 -0 0 0 0 -0 nan
nan 0 0 0 0 0 -0 -0 -0 -1 -0 -0 -0 -0 -0 -0 -0 -0 -0 0 0 -0 -0 -0 -0 -0 -0 -0 -0 -0 -0 -0 -0 -0 -0 -0 0 0 -0 -0 -0 -0 0 0 -0 0 0 0 nan
nan -0 -0 -0 0 -0 -0 -0 0 -1 -0 -0 -0 -0 -0 -0 -0 0 0 -0 -0 -0 -0 -0 -0 -0 -0 -0 -0 -0 -0 -0 -0 -0 -0 -0 -0 -0 -0 -0 0 0 0 -0 0 0 0 0 nan
nan -0 -0 -0 -0 -0 0 -0 -1 -1 -0 -0 -0 -0 -0 -0 -0 -0 -0 -0 -0 -0 -0 -0 -0 -0 -0 -0 -0 -0 -0 -1 -0 -0 -0 -0 -0 -0 -0 -0 0 0 -0 0 0 0 0 -0 nan
nan -0 -0 -0 0 -0 -0 -0 -1 -0 -0 -0 -0 -0 -0 -0 -0 0 0 0 -0 -0 -0 -0 -0 -0 -0 -0 -0 -0 -0 -1 -1 -1 -0 -0 -0 -0 -0 -0 0 -0 1 1 -1 -0 0 -0 nan
nan -0 0 0 -0 -0 -0 -0 -1 -0 -0 -0 -0 -0 -0 -0 -0 0 -0 -0 -0 -0 -1 -1 -1 -1 -1 -0 -0 -0 -0 -0 -1 -1 -1 -1 -1 -0 -0 -0 -0 -0 0 1 1 -1 -1 -0 nan
nan 0 0 0 -0 0 -0 1 -1 -0 0 0 -0 -0 -0 -0 -0 -0 -1 -1 -1 -1 -1 -1 -1 -1 -1 -1 -1 -1 -1 -1 -1 -1 -1 -1 -0 -0 -0 -0 -1 -0 0 0 -0 1 1 -1 nan
nan 0 -0 -0 0 -0 -1 -0 1 -0 -0 -0 0 0 -0 -0 -0 -0 -0 -1 -1 -1 -1 -1 -1 -1 -2 -2 -2 -2 -2 -2 -2 -2 -1 -1 -1 -1 -0 -0 -0 -0 -0 1 1 -0 -2 -0 nan
nan -0 -0 0 0 -0 -1 -0 1 0 0 0 0 0 0 0 -0 0 0 -0 -0 -0 -1 -1 -1 -1 -2 -1 -2 -1 -1 -2 -2 -1 -2 -4 -3 -2 -1 -1 -1 0 -0 -0 0 1 0 -0 nan
nan -0 0 -0 -0 0 -0 -1 1 0 0 0 0 0 0 0 0 -0 -0 -0 -1 -1 -1 -1 -1 -1 -2 -1 -1 -1 -1 -1 -1 -1 -1 -1 -2 -3 -2 -1 -1 -1 -0 -0 0 -0 -1 -1 nan
nan 0 0 0 -0 -0 0 -1 0 -0 -0 -1 -0 0 0 0 -0 -0 -0 -0 -1 -1 -1 -2 -1 -1 -1 -1 -1 -1 -2 -2 -1 -1 -1 -1 -1 -1 -2 -2 -1 -0 -0 -1 -1 -1 -1 -1 nan
nan 0 0 -0 -0 -0 0 -0 0 -0 -0 -0 0 0 1 0 0 -0 -0 -0 -0 -0 -0 -0 -0 -0 0 -0 -0 -0 -1 -1 -1 -1 -1 -1 -1 -1 -1 -1 -1 -1 -1 -1 -0 -0 -1 -1 nan
nan -0 0 -0 -0 -0 -0 -0 -0 -0 0 0 -0 1 1 0 0 -0 0 0 -0 -0 -0 -0 -0 -0 -0 -0 0 -0 -1 -1 -1 -1 -1 -1 -1 -1 -1 -1 -1 -1 -1 -1 -1 -0 -0 -1 nan
nan -0 -0 0 -0 -0 -0 -0 -1 -0 0 -0 0 1 1 0 0 -0 -0 -0 -0 -0 -0 -0 -1 -1 -1 -1 -0 -0 -0 -1 -1 -1 -1 -1 -1 -1 -1 -1 -1 -1 -1 -1 -1 -1 -0 -0 nan
nan 0 0 -0 -0 0 -0 -1 0 -1 -0 0 0 1 0 0 0 -0 -0 -0 -0 -0 -0 -0 -0 -0 0 -0 0 0 -0 -0 -0 -0 -0 -0 -0 -0 -1 -1 -1 -1 -1 -1 -1 -1 -0 -0 nan
nan -0 -0 0 0 -0 -1 -1 1 -0 -0 -0 0 0 0 0 0 0 -0 -0 -0 0 -0 0 0 1 0 0 1 1 1 1 0 0 -0 -0 -0 -0 -0 -0 -1 -1 -0 -0 -0 -0 -0 -0 nan
nan -0 0 0 0 -1 -1 -0 0 0 -0 0 0 0 1 1 0 0 0 0 0 0 0 0 0 1 0 0 1 1 1 1 1 1 0 0 -0 -0 -0 -0 -0 -0 -0 -0 -0 -0 0 0 nan
nan -0 -0 -0 0 0 -0 0 -0 0 -0 0 0 1 1 1 0 0 0 0 0 0 0 0 -0 -0 -0 -0 -0 0 0 0 0 0 0 -0 0 0 -0 -0 0 0 0 0 0 -0 0 -0 nan
nan nan nan nan nan nan nan nan nan nan nan nan nan nan nan nan nan nan nan nan nan nan nan nan nan nan nan nan nan nan nan nan nan nan nan nan nan nan nan nan nan nan nan nan nan nan nan nan nan
Wind_Speed
4 1 2 3 5 6 6 6 2 2 2 8 2 4 11 12 8 6 5 10 9 5 7 8 7 6 6 7 7 7 7 7 9 11 10 8 6 5 9 9 9 9 9 10 11 11 10 8 6
2 1 2 4 6 7 7 3 4 3 1 2 3 1 5 10 12 12 4 10 8 7 5 7 6 6 6 7 7 8 8 9 9 11 12 12 10 8 6 8 9 9 9 10 11 11 9 8 7
2 1 5 3 3 4 6 5 5 7 3 4 3 6 4 8 12 7 9 9 9 9 6 4 3 4 6 7 8 8 10 11 11 12 13 14 13 12 10 9 9 10 9 10 10 11 10 9 9
2 2 3 6 4 7 5 6 5 8 9 4 5 8 10 9 6 8 9 10 10 11 9 5 3 4 5 6 8 9 10 11 12 13 13 15 14 14 13 11 10 10 10 11 11 11 11 11 11
1 3 4 5 6 6 5 6 6 4 5 6 4 8 13 10 10 10 11 11 12 10 8 5 3 2 3 6 8 10 11 11 12 14 14 15 16 16 15 13 12 11 11 12 13 13 13 13 12
5 3 6 8 6 7 5 6 4 7 6 7 10 13 11 9 8 8 6 6 7 9 9 7 4 2 3 6 7 9 11 12 12 13 15 16 17 17 16 15 14 13 13 14 14 14 14 15 14
5 5 2 3 9 8 4 2 6 4 5 9 4 8 11 11 8 5 5 5 5 5 5 5 3 4 4 5 6 8 10 12 13 13 15 16 18 19 18 18 17 16 16 15 14 15 16 16 16
2 4 4 3 9 6 4 3 3 5 7 4 4 4 8 6 3 3 3 3 2 3 4 4 4 5 5 6 7 7 8 11 13 14 16 15 18 21 22 21 21 19 18 17 16 16 17 17 17
2 5 5 5 8 7 2 2 4 3 2 7 7 9 7 6 5 3 2 1 1 1 3 4 6 7 6 5 6 7 7 6 8 14 16 18 18 19 23 25 24 22 20 19 19 18 18 18 19
4 6 2 3 3 2 0 3 3 1 1 7 12 10 8 7 5 3 3 2 3 3 3 5 7 9 8 7 7 8 9 9 11 10 11 16 19 20 22 20 23 23 22 22 21 20 19 20 17
1 2 4 4 0 5 5 6 1 2 4 7 5 7 7 5 4 5 5 5 4 4 3 4 5 7 7 6 7 8 9 12 14 13 12 11 13 17 21 23 24 23 25 24 23 24 24 20 18
4 2 2 3 2 5 6 6 5 7 5 5 7 7 8 9 8 9 7 7 6 6 6 7 7 8 8 8 8 9 9 10 11 12 12 14 15 13 16 19 22 23 23 24 24 24 23 22 21
3 1 4 4 9 9 6 6 1 7 5 5 7 8 9 9 9 7 6 6 6 7 9 10 11 11 11 12 12 12 13 14 14 14 14 15 15 17 17 18 18 21 25 27 27 28 28 27 24
0 4 7 6 7 3 5 5 8 5 6 7 8 10 10 10 9 7 6 6 7 9 11 13 14 15 16 15 15 16 16 17 19 19 19 19 19 19 19 18 19 19 22 24 26 27 27 31 30
2 6 5 2 2 3 3 9 5 7 7 8 9 10 10 10 9 8 7 9 10 12 14 17 18 19 19 19 19 18 18 20 21 21 21 23 23 23 23 21 17 19 22 22 25 18 16 23 31
5 4 6 5 4 2 4 5 7 7 7 8 8 8 8 8 9 8 9 10 11 13 15 17 19 20 22 23 24 25 23 22 22 22 25 25 25 26 27 26 25 22 23 20 22 23 25 37 39
5 6 4 5 3 1 2 2 8 7 8 8 7 6 5 5 6 6 8 9 10 12 13 14 16 18 20 21 22 24 26 25 25 24 25 27 27 29 29 28 29 30 28 27 23 18 24 26 21
3 6 6 7 3 5 10 12 9 7 9 9 8 6 5 3 3 5 7 9 11 13 15 16 19 21 22 23 24 24 22 24 27 27 28 29 29 30 29 30 31 32 31 30 27 30 25 25 26
4 5 9 7 3 7 10 11 10 10 10 10 8 6 4 2 2 4 7 9 11 13 16 19 21 23 25 24 26 26 25 26 25 26 29 30 31 30 31 31 31 31 31 31 28 25 27 30 25
6 8 10 8 7 5 11 12 6 11 10 9 8 7 4 2 1 5 7 9 12 14 16 18 21 22 24 23 25 24 24 24 26 25 26 29 29 31 30 30 31 30 29 30 29 28 25 25 22
10 11 7 8 6 13 10 18 14 8 9 9 9 7 5 3 1 4 7 9 11 14 17 21 22 23 23 26 24 24 24 21 20 21 23 22 27 29 29 28 28 30 29 28 27 24 24 26 25
11 7 9 9 6 6 3 7 6 12 9 12 11 11 8 4 2 4 7 9 12 15 17 22 23 23 24 26 24 23 22 23 23 23 24 26 26 27 27 27 26 27 25 25 26 24 24 24 29
4 4 5 5 8 8 13 7 4 8 10 10 14 13 10 5 1 3 6 9 11 14 17 20 21 20 22 24 24 22 21 22 22 22 24 25 23 23 23 22 24 27 26 24 22 24 23 24 27
10 6 5 5 8 9 13 11 8 5 2 5 6 11 9 5 1 3 5 8 10 13 16 18 19 20 23 26 26 21 21 22 23 23 23 21 23 21 20 20 22 22 24 24 24 25 28 27 27
10 6 4 6 6 8 4 7 13 7 5 2 3 9 9 6 1 3 5 7 10 12 14 16 18 19 22 25 24 21 20 21 21 22 22 24 22 22 23 24 23 24 24 23 23 24 26 30 36
13 12 6 7 7 9 8 7 2 5 3 4 3 7 8 5 1 3 5 7 9 11 13 15 16 18 22 24 23 20 20 19 18 19 20 19 20 22 24 25 22 22 22 22 26 28 28 28 32
6 7 3 8 10 9 10 14 9 5 6 7 7 8 9 7 3 1 4 6 8 9 12 14 16 18 22 22 23 22 21 21 18 17 16 17 17 20 20 20 19 18 16 17 18 23 26 26 25
6 10 4 4 5 11 8 14 13 5 2 8 10 14 12 9 5 2 2 4 6 8 11 13 16 19 19 20 23 23 23 22 20 17 18 17 17 18 18 18 15 11 9 5 6 10 10 17 16
6 6 5 4 7 9 12 9 2 4 6 5 7 12 14 13 8 7 4 3 5 7 9 12 15 16 17 18 20 20 21 21 21 21 19 19 19 19 22 20 15 13 9 3 6 1 4 9 11
5 10 11 7 10 8 9 14 3 3 6 7 10 8 12 12 9 6 3 2 3 5 7 10 11 13 16 17 16 16 18 19 20 22 23 23 25 26 27 27 22 19 18 14 12 13 11 7 5
Wind_Direction
3 353 315 272 233 242 149 103 12 30 143 33 65 7 68 38 18 53 88 29 38 89 179 189 196 206 209 215 223 234 244 236 222 216 209 198 199 216 210 210 204 201 197 190 191 192 197 208 217
31 5 301 259 251 201 133 58 20 47 308 276 20 79 77 74 67 76 88 29 55 83 147 194 203 216 236 244 240 243 246 245 236 228 223 217 213 215 229 220 218 216 209 202 199 200 206 218 231
16 82 264 266 243 234 122 40 47 91 107 178 130 60 53 60 51 67 34 41 57 73 93 147 186 227 244 252 255 252 251 247 242 233 229 225 223 219 224 226 228 225 222 216 212 212 216 227 233
302 226 202 253 144 82 74 62 43 138 110 148 129 87 82 46 74 60 50 60 69 73 75 105 153 202 232 245 257 257 252 251 248 239 231 228 231 231 229 226 228 233 232 227 224 226 228 233 233
300 237 225 208 126 114 94 62 47 96 103 127 187 114 100 62 80 66 63 70 68 76 83 101 138 195 250 266 265 260 256 251 248 246 238 234 233 237 237 232 231 237 235 235 233 236 237 239 237
219 260 230 199 144 126 99 49 60 78 115 101 111 114 91 88 97 82 103 114 120 135 141 142 160 213 269 278 270 258 252 248 244 245 243 241 238 236 235 237 235 238 243 241 242 241 241 243 244
280 253 278 239 145 146 74 20 38 35 93 66 109 106 119 71 93 112 119 131 141 150 163 174 196 227 222 289 280 267 258 252 251 246 244 242 241 239 237 237 235 237 244 247 244 244 243 244 246
281 267 203 197 180 130 93 350 18 28 74 47 24 133 108 52 92 112 131 143 171 191 196 220 245 252 267 272 277 282 282 278 268 263 252 244 248 243 240 239 237 236 238 246 247 244 244 244 245
283 237 200 161 190 125 76 18 33 355 75 72 71 85 88 84 96 133 185 214 281 307 277 264 261 261 266 269 284 292 289 306 302 274 262 257 246 247 245 242 238 239 240 241 246 247 246 242 243
278 261 125 86 113 160 247 339 6 291 47 128 90 75 78 81 88 84 55 0 360 339 319 304 298 291 300 296 290 283 282 291 296 287 278 266 260 250 248 241 245 239 241 242 243 245 244 243 237
49 325 134 127 250 348 314 295 353 283 198 38 83 109 97 105 106 79 52 39 28 14 350 329 318 313 315 309 297 289 288 290 292 285 284 271 271 266 260 255 251 245 241 242 242 242 242 238 234
234 140 169 142 220 300 289 318 285 20 52 43 72 86 83 71 67 56 47 34 24 6 351 344 339 333 326 321 304 296 292 288 288 289 284 276 273 266 261 262 259 253 248 244 242 238 236 235 234
263 181 252 246 269 267 267 261 356 77 87 89 88 85 78 73 66 58 48 23 7 353 345 343 339 335 330 324 318 308 300 296 293 291 289 284 280 275 272 267 268 265 256 253 250 246 241 241 238
41 272 278 283 271 239 251 125 172 83 107 103 99 88 81 71 62 51 37 12 356 346 337 335 333 331 330 328 323 315 306 299 295 293 289 287 286 283 277 277 269 268 264 259 256 258 256 256 249
267 275 254 192 188 100 194 157 88 121 133 122 109 98 84 69 54 43 20 5 354 346 340 335 331 328 325 320 316 312 306 301 297 292 287 285 283 281 282 280 268 270 272 264 259 236 244 264 260
252 239 234 113 190 64 228 117 116 134 143 125 116 104 87 66 50 32 15 3 352 343 337 333 328 324 323 320 318 315 309 301 292 287 285 280 276 274 274 275 274 263 262 267 270 263 265 266 268
215 254 231 181 110 301 314 360 132 162 161 154 148 135 113 78 40 18 7 359 351 345 340 334 329 325 322 319 314 310 307 305 298 292 283 278 275 271 269 268 268 269 261 255 260 260 253 251 256
229 226 231 243 129 254 261 264 151 186 189 182 173 166 153 122 58 13 5 0 357 352 349 345 338 332 327 322 316 310 303 296 295 292 288 282 276 273 270 266 265 265 266 264 255 252 250 258 257
254 251 258 272 280 300 265 262 262 185 194 193 192 188 176 140 72 23 7 0 3 354 350 346 341 336 333 328 322 315 311 307 302 293 288 287 285 280 274 272 269 268 265 263 260 258 254 254 257
234 255 262 269 283 257 276 276 263 195 214 213 208 204 197 185 10 5 5 2 357 353 348 345 341 337 335 330 327 319 314 308 303 301 295 294 287 285 283 276 272 268 266 262 260 256 253 253 245
224 243 262 270 303 263 288 270 228 203 215 210 211 207 203 212 312 354 358 354 351 349 347 346 345 342 336 331 327 320 315 310 309 302 303 298 293 290 285 281 276 272 269 266 260 257 250 250 245
253 223 245 265 274 280 23 291 227 168 204 212 212 213 215 226 322 349 355 356 354 350 349 350 348 345 341 339 334 328 322 315 308 308 304 302 299 297 292 285 277 272 269 266 264 260 254 247 249
260 198 213 239 256 290 253 260 97 158 212 219 215 212 211 212 250 339 351 355 356 353 353 353 352 351 348 346 340 332 323 317 314 313 309 309 305 300 297 294 290 284 274 265 261 257 252 248 249
137 155 198 234 261 256 261 222 296 153 191 139 173 199 201 204 231 348 353 356 359 355 354 356 357 354 350 349 343 336 331 327 324 321 319 316 313 311 306 297 288 280 279 271 267 268 260 248 247
211 213 248 229 200 261 73 271 262 314 184 307 222 194 198 200 219 353 352 358 356 356 354 352 353 353 351 352 350 344 338 331 328 326 323 322 321 319 316 310 299 286 273 265 263 262 264 264 248
219 233 240 262 270 278 158 259 329 82 125 183 203 193 192 201 235 354 353 355 355 354 351 351 353 353 355 358 356 352 345 340 336 333 332 329 328 325 325 318 310 296 284 273 262 256 257 260 264
166 215 299 264 263 268 252 265 221 152 199 212 215 207 213 211 208 292 340 349 352 355 354 357 355 352 356 2 360 1 358 355 349 348 345 344 343 338 336 332 323 314 303 289 283 267 257 249 257
248 140 173 208 253 262 264 288 297 200 246 229 226 224 220 210 206 235 311 330 349 355 355 360 359 2 355 7 4 9 11 9 6 5 6 6 5 0 360 356 354 346 331 316 299 294 262 237 250
169 206 225 277 261 271 283 275 114 174 283 271 254 229 214 206 199 232 254 316 345 356 360 6 6 10 8 13 7 9 19 22 21 23 26 24 26 29 29 22 27 35 37 56 64 234 223 213 240
283 249 216 235 241 238 280 269 251 213 245 258 275 222 200 194 190 208 233 278 336 351 359 7 10 13 19 24 12 13 21 26 33 36 40 41 48 47 49 43 46 53 60 60 70 74 101 154 202
Height
1518 1518 1518 1518 1514 1501 1505 1511 1513 1510 1509 1514 1514 1512 1512 1515 1515 1522 1531 1528 1526 1526 1526 1528 1530 1531 1532 1533 1534 1535 1537 1538 1538 1539 1538 1538 1538 1538 1538 1537 1535 1535 1535 1535 1535 1536 1537 1538 1538
1518 1519 1519 1515 1506 1504 1506 1511 1513 1512 1515 1517 1517 1515 1515 1522 1524 1528 1530 1528 1527 1527 1527 1528 1530 1531 1533 1533 1533 1533 1534 1536 1537 1539 1539 1539 1538 1538 1539 1538 1537 1537 1536 1535 1535 1536 1537 1537 1538
1519 1519 1518 1508 1504 1499 1505 1513 1513 1516 1515 1516 1516 1518 1520 1527 1529 1531 1531 1530 1529 1529 1529 1530 1531 1532 1533 1533 1533 1533 1533 1533 1535 1536 1538 1538 1538 1538 1538 1538 1539 1538 1537 1537 1537 1536 1536 1537 1537
1521 1521 1519 1506 1506 1513 1512 1514 1516 1515 1516 1518 1516 1520 1527 1531 1532 1533 1533 1532 1531 1531 1531 1530 1531 1531 1532 1532 1532 1532 1532 1532 1532 1533 1534 1536 1538 1537 1538 1538 1538 1538 1538 1537 1537 1537 1537 1536 1537
1521 1518 1509 1508 1511 1514 1517 1518 1518 1516 1516 1517 1518 1520 1528 1533 1532 1533 1532 1531 1531 1531 1531 1531 1531 1531 1530 1530 1530 1530 1530 1531 1531 1531 1532 1533 1534 1535 1536 1537 1537 1536 1536 1537 1536 1536 1537 1536 1536
1517 1516 1508 1507 1510 1516 1517 1521 1519 1518 1517 1519 1518 1521 1530 1534 1534 1532 1531 1530 1530 1529 1529 1529 1530 1530 1530 1529 1528 1528 1528 1528 1528 1529 1529 1530 1531 1532 1533 1534 1535 1535 1535 1535 1537 1537 1537 1536 1536
1515 1510 1507 1505 1512 1516 1520 1523 1522 1519 1517 1521 1523 1522 1532 1533 1532 1532 1531 1531 1531 1530 1530 1530 1529 1529 1528 1528 1528 1527 1527 1526 1526 1526 1526 1526 1528 1529 1531 1531 1531 1532 1533 1533 1534 1535 1535 1536 1535
1519 1513 1513 1512 1513 1516 1523 1524 1524 1522 1524 1525 1525 1522 1529 1534 1533 1532 1531 1531 1530 1530 1530 1530 1530 1529 1528 1527 1527 1526 1526 1525 1524 1525 1524 1523 1524 1525 1526 1527 1528 1528 1529 1531 1532 1533 1533 1534 1534
1520 1511 1509 1515 1515 1516 1523 1523 1525 1526 1524 1526 1527 1528 1532 1532 1533 1531 1530 1530 1530 1530 1529 1529 1528 1528 1528 1527 1526 1526 1525 1524 1523 1522 1522 1521 1520 1522 1522 1523 1524 1525 1526 1527 1529 1531 1530 1531 1531
1517 1510 1512 1518 1520 1520 1523 1523 1524 1524 1525 1526 1530 1531 1531 1532 1532 1531 1530 1530 1530 1529 1528 1528 1527 1527 1527 1526 1525 1525 1524 1523 1521 1519 1519 1518 1517 1517 1518 1520 1520 1521 1522 1524 1526 1526 1527 1528 1529
1520 1512 1520 1523 1524 1525 1523 1522 1525 1524 1521 1530 1531 1533 1532 1531 1530 1530 1530 1530 1529 1528 1528 1527 1526 1526 1524 1524 1523 1523 1523 1522 1520 1518 1517 1515 1514 1514 1514 1515 1516 1517 1518 1519 1521 1522 1523 1525 1526
1519 1524 1523 1523 1528 1526 1523 1524 1524 1527 1534 1534 1533 1533 1533 1531 1530 1530 1529 1529 1529 1528 1527 1526 1526 1525 1524 1524 1522 1521 1520 1519 1518 1517 1515 1513 1512 1511 1510 1511 1511 1512 1513 1513 1514 1515 1516 1520 1522
1521 1524 1525 1524 1525 1525 1524 1523 1524 1533 1535 1535 1534 1533 1532 1532 1531 1530 1529 1529 1528 1527 1526 1526 1525 1525 1524 1523 1522 1520 1519 1518 1517 1515 1513 1512 1510 1508 1507 1507 1507 1507 1507 1507 1508 1509 1509 1512 1514
1525 1524 1522 1522 1522 1523 1522 1523 1525 1536 1536 1536 1536 1535 1534 1533 1532 1531 1530 1529 1528 1528 1527 1526 1525 1524 1523 1522 1521 1519 1517 1516 1515 1513 1511 1510 1508 1506 1505 1504 1503 1502 1501 1502 1502 1504 1505 1508 1508
1525 1521 1518 1518 1519 1519 1521 1521 1529 1535 1535 1536 1536 1536 1535 1535 1533 1531 1531 1530 1529 1528 1526 1525 1523 1522 1521 1520 1518 1517 1515 1513 1511 1509 1507 1506 1505 1503 1501 1500 1500 1499 1496 1496 1497 1494 1498 1502 1501
1520 1521 1512 1515 1518 1520 1519 1510 1531 1535 1535 1537 1538 1537 1537 1536 1535 1533 1532 1531 1530 1528 1526 1525 1523 1520 1518 1515 1513 1510 1509 1508 1506 1505 1502 1500 1499 1498 1496 1495 1494 1494 1492 1491 1491 1492 1490 1495 1495
1519 1505 1512 1513 1518 1518 1517 1511 1528 1532 1533 1535 1536 1537 1537 1537 1535 1533 1532 1531 1530 1529 1527 1525 1523 1520 1517 1515 1512 1509 1505 1502 1500 1498 1496 1493 1493 1490 1489 1488 1486 1485 1486 1487 1486 1488 1487 1489 1486
1509 1515 1513 1511 1516 1516 1514 1512 1522 1529 1530 1531 1533 1534 1535 1535 1534 1532 1530 1529 1527 1525 1523 1521 1518 1515 1513 1510 1507 1504 1502 1499 1495 1492 1489 1486 1484 1483 1481 1480 1478 1477 1477 1477 1479 1480 1481 1479 1478
1519 1519 1516 1510 1515 1520 1513 1510 1509 1525 1527 1529 1531 1533 1533 1534 1533 1532 1529 1527 1525 1523 1520 1518 1515 1512 1509 1505 1502 1499 1495 1491 1488 1486 1482 1479 1476 1475 1473 1472 1471 1469 1468 1469 1469 1470 1471 1470 1470
1522 1520 1515 1514 1515 1520 1509 1506 1506 1521 1522 1526 1529 1531 1532 1533 1533 1531 1529 1527 1524 1521 1519 1516 1513 1509 1506 1501 1497 1493 1489 1486 1482 1479 1475 1472 1469 1466 1464 1462 1461 1461 1459 1460 1461 1462 1464 1465 1466
1517 1515 1513 1518 1512 1510 1509 1499 1493 1516 1522 1525 1527 1528 1530 1530 1530 1529 1526 1524 1521 1518 1515 1512 1508 1505 1502 1497 1493 1488 1485 1481 1478 1475 1469 1466 1461 1458 1455 1454 1452 1451 1451 1451 1452 1455 1457 1458 1459
1510 1511 1514 1514 1516 1508 1511 1501 1490 1502 1513 1520 1522 1525 1526 1528 1528 1527 1525 1523 1520 1516 1513 1509 1505 1501 1497 1492 1488 1483 1480 1476 1472 1467 1463 1457 1454 1449 1447 1445 1443 1442 1442 1442 1443 1445 1447 1449 1448
1509 1514 1513 1513 1512 1511 1506 1514 1483 1501 1502 1504 1513 1519 1522 1524 1525 1525 1523 1520 1518 1515 1510 1506 1503 1500 1496 1491 1485 1480 1475 1471 1466 1461 1457 1451 1448 1444 1441 1439 1437 1434 1433 1433 1434 1436 1437 1439 1440
1514 1514 1513 1513 1511 1510 1492 1501 1485 1488 1496 1502 1508 1515 1521 1523 1523 1522 1520 1518 1515 1513 1510 1506 1503 1499 1494 1488 1482 1476 1471 1466 1461 1457 1451 1447 1442 1438 1435 1432 1430 1428 1426 1425 1425 1426 1426 1427 1429
1514 1511 1506 1503 1505 1499 1502 1504 1489 1488 1501 1506 1508 1513 1518 1520 1520 1521 1520 1517 1516 1511 1508 1505 1502 1497 1492 1485 1479 1473 1468 1463 1458 1453 1448 1442 1437 1432 1428 1425 1422 1419 1417 1417 1417 1417 1417 1416 1418
1509 1507 1503 1506 1495 1490 1505 1498 1481 1497 1504 1508 1511 1513 1517 1518 1518 1519 1518 1516 1513 1510 1507 1504 1501 1496 1489 1483 1478 1472 1466 1461 1456 1451 1445 1441 1435 1430 1424 1419 1414 1410 1408 1408 1408 1408 1408 1408 1408
1510 1510 1503 1505 1498 1506 1490 1481 1478 1499 1502 1506 1509 1513 1515 1515 1516 1516 1516 1514 1512 1509 1506 1502 1499 1493 1488 1483 1477 1471 1465 1459 1454 1449 1445 1439 1433 1428 1422 1416 1409 1404 1401 1400 1400 1399 1400 1401 1402
1503 1503 1510 1507 1514 1503 1483 1482 1484 1495 1494 1500 1504 1506 1509 1511 1513 1512 1512 1511 1510 1507 1504 1501 1497 1492 1487 1482 1477 1471 1465 1460 1455 1449 1443 1438 1432 1426 1419 1412 1406 1401 1398 1396 1394 1392 1391 1395 1397
1504 1502 1503 1501 1498 1499 1496 1488 1490 1498 1495 1496 1497 1500 1503 1507 1507 1508 1508 1508 1508 1506 1503 1499 1496 1492 1488 1482 1478 1473 1467 1462 1457 1450 1445 1439 1433 1426 1419 1412 1406 1401 1396 1394 1391 1389 1389 1391 1393
1495 1491 1494 1501 1496 1493 1494 1486 1487 1492 1495 1496 1493 1496 1499 1503 1504 1505 1505 1507 1506 1504 1501 1498 1496 1493 1488 1483 1479 1475 1469 1464 1459 1454 1447 1441 1434 1428 1421 1415 1408 1402 1397 1394 1391 1388 1387 1388 1389